Time,TemperatureF,DewpointF,PressureIn,WindDirection,WindDirectionDegrees,WindSpeedMPH,WindSpeedGustMPH,Humidity,HourlyPrecipIn,Conditions,Clouds,dailyrainin,SoftwareType,DateUTC
2013-09-19 00:01:00,63.0,61.0,30.14,South,173,0.0,0.0,92,0.00,,,0.00,,2013-09-19 04:01:00,
2013-09-19 00:14:00,63.0,61.0,30.14,South,173,0.0,0.0,92,0.00,,,0.00,,2013-09-19 04:14:00,
2013-09-19 00:25:00,63.0,61.0,30.14,South,173,0.0,0.0,93,0.00,,,0.00,,2013-09-19 04:25:00,
2013-09-19 00:44:00,63.0,61.0,30.13,South,173,0.0,0.0,93,0.00,,,0.00,,2013-09-19 04:44:00,
2013-09-19 00:54:00,63.0,61.0,30.13,South,173,0.0,0.0,93,0.00,,,0.00,,2013-09-19 04:54:00,
2013-09-19 01:13:00,63.0,61.0,30.13,South,173,0.0,0.0,93,0.00,,,0.00,,2013-09-19 05:13:00,
2013-09-19 01:23:00,63.0,61.0,30.13,South,173,0.0,0.0,93,0.00,,,0.00,,2013-09-19 05:23:00,
2013-09-19 01:43:00,63.0,61.0,30.14,South,173,0.0,0.0,93,0.00,,,0.00,,2013-09-19 05:43:00,
2013-09-19 01:52:00,63.0,61.0,30.13,South,173,0.0,0.0,92,0.00,,,0.00,,2013-09-19 05:52:00,
2013-09-19 02:12:00,62.0,60.0,30.13,South,173,0.0,0.0,92,0.00,,,0.00,,2013-09-19 06:12:00,
2013-09-19 02:22:00,62.0,60.0,30.14,South,173,0.0,0.0,93,0.00,,,0.00,,2013-09-19 06:22:00,
2013-09-19 02:43:00,62.0,60.0,30.13,South,173,0.0,0.0,92,0.00,,,0.00,,2013-09-19 06:43:00,
2013-09-19 02:52:00,61.0,59.0,30.13,South,173,0.0,0.0,92,0.00,,,0.00,,2013-09-19 06:52:00,
2013-09-19 03:12:00,61.0,59.0,30.12,South,173,0.0,0.0,92,0.00,,,0.00,,2013-09-19 07:12:00,
2013-09-19 03:22:00,61.0,59.0,30.12,South,173,0.0,0.0,93,0.00,,,0.00,,2013-09-19 07:22:00,
2013-09-19 03:42:00,61.0,59.0,30.12,South,173,0.0,0.0,93,0.00,,,0.00,,2013-09-19 07:42:00,
2013-09-19 03:52:00,60.0,58.0,30.11,South,173,0.0,0.0,93,0.00,,,0.00,,2013-09-19 07:52:00,
2013-09-19 04:12:00,60.0,58.0,30.11,South,173,0.0,0.0,93,0.00,,,0.00,,2013-09-19 08:12:00,
2013-09-19 04:22:00,60.0,58.0,30.11,South,173,0.0,0.0,93,0.00,,,0.00,,2013-09-19 08:22:00,
2013-09-19 04:42:00,60.0,58.0,30.11,South,173,0.0,0.0,94,0.00,,,0.00,,2013-09-19 08:42:00,
2013-09-19 04:52:00,59.0,57.0,30.10,South,173,0.0,0.0,93,0.00,,,0.00,,2013-09-19 08:52:00,
2013-09-19 05:11:00,59.0,57.0,30.11,South,173,0.0,0.0,94,0.00,,,0.00,,2013-09-19 09:11:00,
2013-09-19 05:22:00,59.0,57.0,30.11,South,173,0.0,0.0,94,0.00,,,0.00,,2013-09-19 09:22:00,
2013-09-19 05:53:00,59.0,57.0,30.10,South,173,0.0,0.0,93,0.00,,,0.00,,2013-09-19 09:53:00,
2013-09-19 06:12:00,58.0,56.0,30.11,South,173,0.0,0.0,93,0.00,,,0.00,,2013-09-19 10:12:00,
2013-09-19 06:24:00,58.0,56.0,30.11,South,173,0.0,0.0,93,0.00,,,0.00,,2013-09-19 10:24:00,
2013-09-19 06:43:00,58.0,56.0,30.11,South,173,0.0,0.0,93,0.00,,,0.00,,2013-09-19 10:43:00,
2013-09-19 06:52:00,58.0,56.0,30.12,South,173,0.0,0.0,94,0.00,,,0.00,,2013-09-19 10:52:00,
2013-09-19 07:12:00,58.0,56.0,30.11,South,173,0.0,0.0,94,0.00,,,0.00,,2013-09-19 11:12:00,
2013-09-19 07:22:00,58.0,56.0,30.11,South,173,0.0,0.0,94,0.00,,,0.00,,2013-09-19 11:22:00,
2013-09-19 07:42:00,58.0,56.0,30.11,South,173,0.0,0.0,94,0.00,,,0.00,,2013-09-19 11:42:00,
2013-09-19 07:52:00,58.0,56.0,30.12,South,173,0.0,0.0,94,0.00,,,0.00,,2013-09-19 11:52:00,
2013-09-19 08:11:00,58.0,56.0,30.13,South,173,0.0,0.0,94,0.00,,,0.00,,2013-09-19 12:11:00,
2013-09-19 08:22:00,58.0,56.0,30.13,South,173,0.0,0.0,94,0.00,,,0.00,,2013-09-19 12:22:00,
2013-09-19 08:43:00,58.0,57.0,30.13,South,173,0.0,0.0,95,0.00,,,0.00,,2013-09-19 12:43:00,
2013-09-19 08:52:00,58.0,57.0,30.14,South,173,0.0,0.0,95,0.00,,,0.00,,2013-09-19 12:52:00,
2013-09-19 09:11:00,59.0,58.0,30.13,South,173,0.0,0.0,96,0.00,,,0.00,,2013-09-19 13:11:00,
2013-09-19 09:22:00,60.0,59.0,30.14,South,173,0.0,0.0,97,0.00,,,0.00,,2013-09-19 13:22:00,
2013-09-19 09:43:00,61.0,60.0,30.14,South,173,0.0,0.0,97,0.00,,,0.00,,2013-09-19 13:43:00,
2013-09-19 09:52:00,62.0,61.0,30.14,South,175,0.0,0.0,97,0.00,,,0.00,,2013-09-19 13:52:00,
2013-09-19 10:12:00,63.0,61.0,30.14,South,175,0.0,2.0,92,0.00,,,0.00,,2013-09-19 14:12:00,
2013-09-19 10:22:00,65.0,61.0,30.14,SSE,153,0.0,3.0,88,0.00,,,0.00,,2013-09-19 14:22:00,
2013-09-19 10:52:00,68.0,62.0,30.14,South,179,0.0,4.0,80,0.00,,,0.00,,2013-09-19 14:52:00,
2013-09-19 11:11:00,69.0,61.0,30.14,SSW,194,0.0,3.0,77,0.00,,,0.00,,2013-09-19 15:11:00,
2013-09-19 11:22:00,70.0,61.0,30.14,SSW,208,0.0,4.0,73,0.00,,,0.00,,2013-09-19 15:22:00,
2013-09-19 11:43:00,72.0,62.0,30.14,West,276,1.0,6.0,70,0.00,,,0.00,,2013-09-19 15:43:00,
2013-09-19 11:53:00,74.0,62.0,30.14,SSW,210,1.0,5.0,67,0.00,,,0.00,,2013-09-19 15:53:00,
2013-09-19 12:04:00,74.0,62.0,30.14,SSW,210,1.0,5.0,67,0.00,,,0.00,,2013-09-19 16:04:00,
2013-09-19 12:24:00,77.0,63.0,30.13,West,271,1.0,5.0,62,0.00,,,0.00,,2013-09-19 16:24:00,
2013-09-19 12:43:00,77.0,63.0,30.13,West,263,1.0,7.0,61,0.00,,,0.00,,2013-09-19 16:43:00,
2013-09-19 12:52:00,79.0,63.0,30.12,SW,234,1.0,5.0,59,0.00,,,0.00,,2013-09-19 16:52:00,
2013-09-19 13:12:00,79.0,63.0,30.12,WNW,302,1.0,5.0,58,0.00,,,0.00,,2013-09-19 17:12:00,
2013-09-19 13:23:00,79.0,63.0,30.11,West,271,1.0,6.0,58,0.00,,,0.00,,2013-09-19 17:23:00,
2013-09-19 13:53:00,80.0,64.0,30.10,WNW,288,1.0,7.0,58,0.00,,,0.00,,2013-09-19 17:53:00,
2013-09-19 14:12:00,80.0,64.0,30.10,WSW,248,1.0,3.0,58,0.00,,,0.00,,2013-09-19 18:12:00,
2013-09-19 14:22:00,80.0,65.0,30.09,SSE,148,0.0,3.0,60,0.00,,,0.00,,2013-09-19 18:22:00,
2013-09-19 14:42:00,81.0,66.0,30.08,SE,130,1.0,3.0,60,0.00,,,0.00,,2013-09-19 18:42:00,
2013-09-19 14:52:00,80.0,64.0,30.08,SSW,199,3.0,6.0,58,0.00,,,0.00,,2013-09-19 18:52:00,
2013-09-19 15:12:00,82.0,65.0,30.08,WNW,283,3.0,5.0,56,0.00,,,0.00,,2013-09-19 19:12:00,
2013-09-19 15:22:00,81.0,65.0,30.07,West,265,0.0,3.0,58,0.00,,,0.00,,2013-09-19 19:22:00,
2013-09-19 15:42:00,83.0,66.0,30.06,WNW,296,2.0,4.0,56,0.00,,,0.00,,2013-09-19 19:42:00,
2013-09-19 15:52:00,81.0,65.0,30.05,South,186,3.0,7.0,58,0.00,,,0.00,,2013-09-19 19:52:00,
2013-09-19 16:12:00,82.0,65.0,30.05,South,171,2.0,7.0,57,0.00,,,0.00,,2013-09-19 20:12:00,
2013-09-19 16:22:00,82.0,65.0,30.04,West,273,2.0,6.0,56,0.00,,,0.00,,2013-09-19 20:22:00,
2013-09-19 16:42:00,82.0,65.0,30.04,WSW,238,0.0,5.0,57,0.00,,,0.00,,2013-09-19 20:42:00,
2013-09-19 16:52:00,82.0,65.0,30.04,SSW,195,3.0,7.0,56,0.00,,,0.00,,2013-09-19 20:52:00,
2013-09-19 17:12:00,82.0,65.0,30.04,SSW,192,3.0,6.0,56,0.00,,,0.00,,2013-09-19 21:12:00,
2013-09-19 17:22:00,83.0,65.0,30.03,South,191,2.0,6.0,55,0.00,,,0.00,,2013-09-19 21:22:00,
2013-09-19 17:44:00,82.0,66.0,30.03,South,191,0.0,4.0,58,0.00,,,0.00,,2013-09-19 21:44:00,
2013-09-19 17:55:00,82.0,67.0,30.03,SW,234,0.0,2.0,60,0.00,,,0.00,,2013-09-19 21:55:00,
2013-09-19 18:14:00,82.0,66.0,30.03,South,183,1.0,4.0,58,0.00,,,0.00,,2013-09-19 22:14:00,
2013-09-19 18:24:00,82.0,67.0,30.03,WSW,241,0.0,3.0,60,0.00,,,0.00,,2013-09-19 22:24:00,
2013-09-19 18:33:00,82.0,67.0,30.03,WSW,241,0.0,3.0,60,0.00,,,0.00,,2013-09-19 22:33:00,
2013-09-19 18:53:00,82.0,67.0,30.03,SW,225,2.0,4.0,61,0.00,,,0.00,,2013-09-19 22:53:00,
2013-09-19 19:12:00,82.0,67.0,30.03,SSE,164,0.0,3.0,60,0.00,,,0.00,,2013-09-19 23:12:00,
2013-09-19 19:23:00,81.0,68.0,30.03,South,171,0.0,3.0,64,0.00,,,0.00,,2013-09-19 23:23:00,
2013-09-19 19:53:00,79.0,70.0,30.03,South,171,0.0,0.0,74,0.00,,,0.00,,2013-09-19 23:53:00,
2013-09-19 20:12:00,78.0,70.0,30.03,South,173,0.0,0.0,77,0.00,,,0.00,,2013-09-20 00:12:00,
2013-09-19 20:22:00,77.0,70.0,30.03,South,173,0.0,0.0,80,0.00,,,0.00,,2013-09-20 00:22:00,
2013-09-19 20:42:00,75.0,69.0,30.03,South,173,0.0,0.0,81,0.00,,,0.00,,2013-09-20 00:42:00,
2013-09-19 20:52:00,74.0,69.0,30.03,South,173,0.0,1.0,84,0.00,,,0.00,,2013-09-20 00:52:00,
2013-09-19 21:12:00,73.0,69.0,30.03,South,173,0.0,0.0,86,0.00,,,0.00,,2013-09-20 01:12:00,
2013-09-19 21:22:00,72.0,68.0,30.03,South,173,0.0,0.0,87,0.00,,,0.00,,2013-09-20 01:22:00,
2013-09-19 21:42:00,71.0,67.0,30.04,South,173,0.0,0.0,87,0.00,,,0.00,,2013-09-20 01:42:00,
2013-09-19 21:52:00,71.0,67.0,30.04,South,173,0.0,0.0,87,0.00,,,0.00,,2013-09-20 01:52:00,
2013-09-19 22:12:00,70.0,66.0,30.04,South,173,0.0,0.0,88,0.00,,,0.00,,2013-09-20 02:12:00,
2013-09-19 22:22:00,70.0,66.0,30.04,South,173,0.0,0.0,88,0.00,,,0.00,,2013-09-20 02:22:00,
2013-09-19 22:42:00,69.0,66.0,30.04,South,173,0.0,0.0,90,0.00,,,0.00,,2013-09-20 02:42:00,
2013-09-19 22:52:00,69.0,66.0,30.04,South,173,0.0,0.0,91,0.00,,,0.00,,2013-09-20 02:52:00,
2013-09-19 23:12:00,68.0,65.0,30.04,South,173,0.0,0.0,91,0.00,,,0.00,,2013-09-20 03:12:00,
2013-09-19 23:23:00,68.0,65.0,30.04,South,173,0.0,1.0,91,0.00,,,0.00,,2013-09-20 03:23:00,
2013-09-19 23:45:00,67.0,65.0,30.03,South,173,0.0,0.0,92,0.00,,,0.00,,2013-09-20 03:45:00,
2013-09-19 23:56:00,67.0,64.0,30.03,South,173,0.0,0.0,91,0.00,,,0.00,,2013-09-20 03:56:00,